Location: Bear Creek
(37.3170°N, 88.6764°W)
Time: 02:17:48
(UTC+00:00)

Daily predictions for brighter satellites

Satellite Brightness Start Highest point End
(mag) Time Altitude Azimuth Time Altitude Azimuth Time Altitude Azimuth
Cosmos 1939 Rocket 2.6 00:01:15 10° SSE 00:05:06 79° ENE 00:09:00 10° N
Cosmos 923 Rocket 4.5 00:03:07 10° SSE 00:07:51 37° E 00:09:09 32° ENE
Cosmos 2366 rocket 4.0 00:02:03 10° N 00:08:15 83° W 00:14:22 10° S
USA 81 4.4 00:03:18 10° N 00:08:33 66° W 00:13:45 10° S
H-2A R/B 3.1 00:10:51 26° NE 00:10:51 26° NE 00:13:53 10° N
CREW DRAGON DEMO-1 DEB 3.2 00:09:10 10° WNW 00:12:05 58° SW 00:12:54 39° SSE
Cosmos 44 3.7 00:08:59 10° NW 00:14:20 74° WSW 00:19:43 10° SSE
YAOGAN 1 4.3 00:22:50 18° N 00:22:50 18° N 00:24:07 10° N
NOSS 3-2 (A) 3.3 00:19:11 10° SSW 00:24:31 57° ESE 00:26:19 40° ENE
Cosmos 158 Rocket 3.9 00:21:08 10° S 00:25:59 53° ESE 00:26:33 50° E
SL-16 R/B 4.2 00:22:04 10° WSW 00:26:41 25° WNW 00:31:19 10° N
Cosmos 1470 Rocket 4.2 00:26:02 10° NNW 00:30:15 55° W 00:34:27 10° S
Cosmos 2228 Rocket 3.0 00:26:49 10° S 00:31:22 75° E 00:32:20 54° NNE
BREEZE-M DEB (TANK) 2.0 00:27:42 10° WSW 00:31:24 74° WSW 00:31:24 74° WSW
Cosmos 1680 Rocket 3.7 00:30:38 10° S 00:35:23 51° ESE 00:35:23 51° ESE
Cosmos 1812 3.1 00:32:55 10° S 00:35:56 54° S 00:35:56 54° S
USA 215 3.8 00:34:27 24° NNE 00:38:21 52° NW 00:44:38 10° WSW
COSMO-SKYMED 1 4.1 00:35:21 10° N 00:39:18 35° WNW 00:43:14 10° SW
USA 238 DEB 3.5 00:35:26 10° SSW 00:41:54 70° ESE 00:43:43 49° NE
USA 238 3.5 00:35:32 10° SSW 00:42:00 69° ESE 00:43:47 49° NE
MOS 1 Rocket 3.6 00:40:37 18° N 00:44:45 80° WNW 00:50:05 10° SSW
CZ-2D R/B 4.4 00:42:27 10° S 00:46:05 43° W 00:49:45 10° NNW
Meteor 2-6 Rocket 4.3 00:40:57 10° SSW 00:46:35 74° W 00:50:37 19° N
Cosmos 2263 4.3 00:43:51 10° NNW 00:48:30 55° NNE 00:48:30 55° NNE
Nadezhda 3 Rocket 4.2 00:46:29 10° SSW 00:52:49 73° W 00:59:12 10° N
X-37B 3.4 00:52:57 10° WNW 00:53:55 16° WNW 00:53:55 16° WNW
Okean-O 3.3 00:53:46 10° S 00:58:05 54° W 01:02:26 10° NNW
FALCON 9 R/B 3.8 00:58:17 10° W 00:58:37 13° WSW 00:58:37 13° WSW
USA 267 3.6 01:09:12 48° N 01:09:12 48° N 01:14:33 10° NW
Cosmos 1821 Rocket 4.3 01:02:54 10° NNW 01:09:05 65° W 01:15:20 10° S
USA 281 3.5 01:09:58 10° SSE 01:16:28 65° WSW 01:23:00 10° NNW
CZ-2C R/B 4.3 01:12:38 10° SSW 01:17:23 38° W 01:21:58 10° NNW
Cosmos 2369 Rocket 3.5 01:30:08 10° NW 01:35:15 36° WSW 01:37:03 29° SW
H-2A R/B 4.3 01:44:03 10° SSW 01:51:28 20° NW 01:53:20 10° NW
CENTAUR R/B 3.6 01:43:52 10° SW 01:47:09 35° WSW 01:47:09 35° WSW
CENTAUR R/B 3.8 09:23:19 48° NE 09:24:08 49° NE 09:32:39 10° SE
Atlas Centaur 2 3.9 09:34:28 30° SE 09:34:28 30° SE 09:38:12 10° ESE
ATLAS 2AS CENTAUR R/B 3.4 09:38:11 59° SE 09:38:54 61° ESE 09:46:41 10° NE
Cosmos 2263 Rocket 4.4 09:48:26 15° NNE 09:48:26 15° NNE 09:49:24 10° NNE
NOSS 3-2 (A) 4.1 09:51:00 78° SSE 09:51:00 78° SSE 09:59:02 10° SSE
Lacrosse 4 Rocket 3.5 10:03:37 25° ENE 10:03:37 25° ENE 10:06:43 10° ESE
FENGYUN 3A 4.3 10:02:01 10° NNE 10:07:18 52° E 10:12:32 10° S
USA 238 DEB 3.8 10:08:23 76° SW 10:08:23 76° SW 10:15:38 10° SSE
USA 238 3.7 10:08:27 76° SW 10:08:27 76° SW 10:15:44 10° SSE
Cosmos 1461 4.2 10:17:59 40° SE 10:17:59 40° SE 10:20:57 10° SE
Cosmos 1709 Rocket 4.0 10:11:16 10° S 10:17:37 83° E 10:24:02 10° N
Meteor 2-3 Rocket 4.2 10:12:16 10° S 10:17:49 58° E 10:23:29 10° NNE
Cosmos 1603 3.7 10:18:19 77° ESE 10:18:19 77° ESE 10:23:37 10° SSE
Cosmos 1943 3.2 10:23:33 73° NNE 10:24:02 79° ENE 10:29:43 10° SSE
CZ-4C R/B 2.0 10:26:54 72° SE 10:27:01 72° ESE 10:32:32 10° NE
ALOS 4.3 10:26:05 10° NNE 10:36:19 - SSW 10:27:10 17° NNE
GPS 2-04 Rocket1 3.8 10:33:14 42° ESE 10:33:14 42° ESE 10:35:57 10° E
OAO 1 Rocket 4.4 10:37:30 66° SSW 10:37:53 69° S 10:43:09 10° E
ERS-2 3.0 10:34:25 10° SSE 10:37:36 47° E 10:37:36 47° E
Cosmos 1933 4.1 10:41:12 44° S 10:41:12 44° S 10:44:03 10° S
Cosmos 1782 4.2 10:39:15 17° NNE 10:41:53 38° E 10:45:39 10° SSE
ATLAS 3B R/B 3.8 10:39:42 15° NNW 10:45:02 41° NE 10:51:47 10° ESE
Cosmos 1151 Rocket 3.0 10:44:42 57° NNE 10:45:30 76° E 10:49:46 10° S
METEOR-M 4.0 10:41:17 10° NNE 10:46:39 85° WNW 10:51:59 10° SSW
ASTRO E2 4.5 10:49:23 22° S 10:49:23 22° S 10:52:02 10° SE
SJ-12 4.3 10:46:51 10° NNE 10:50:53 62° ESE 10:54:53 10° S
Cosmos 158 Rocket 4.0 10:50:04 27° N 10:52:46 71° ENE 10:57:45 10° SSE
RESURS DK-1 2.3 10:51:31 43° SSW 10:52:49 84° ESE 10:57:00 10° NNE
ATLAS CENTAUR R/B 3.5 10:56:53 13° N 10:59:11 21° NE 11:02:12 10° ESE
Cosmos 1844 Rocket 2.8 10:56:21 10° SSW 11:01:58 78° ESE 11:07:39 10° NNE
Meteor 1-4 Rocket 2.5 11:03:45 62° SSW 11:03:45 62° SSW 11:06:45 10° S
Cosmos 2184 Rocket 4.2 10:59:15 10° S 11:05:31 73° E 11:11:52 10° N
Cosmos 1680 Rocket 3.7 11:01:32 14° NNW 11:06:10 73° ENE 11:11:27 10° SSE
Cosmos 1328 Rocket 3.4 11:04:12 29° NNW 11:06:22 71° W 11:10:46 10° S
CRYOSAT 2 4.2 11:02:01 10° S 11:06:52 84° W 11:11:45 10° N
Meteor 2-17 Rocket 4.3 11:00:51 10° SSW 11:06:52 72° W 11:12:56 10° N
Lacrosse 5 2.8 11:09:02 29° NNW 11:09:02 29° NNW 11:13:14 10° NNE
NOSS 3-4 (A) 4.3 11:10:47 27° NW 11:10:51 27° NW 11:16:04 10° NNE
SJ 16-02 3.5 11:14:10 12° NNW 11:14:10 12° NNW 11:14:41 10° N
NOSS 3-4 (C) 4.3 11:10:52 27° NW 11:10:58 27° NW 11:16:13 10° NNE
USA-17 4.5 11:11:07 36° SW 11:12:32 66° WNW 11:15:50 10° NNE
COSMOS 2455 3.7 11:08:47 10° S 11:14:34 51° ESE 11:20:23 10° NE
CENTAUR R/B 3.6 11:10:33 26° WNW 11:14:58 44° WSW 11:23:11 10° S
OAO 2 Rocket 3.4 11:12:56 33° WSW 11:15:06 68° S 11:20:11 10° E
Cosmos 1844 3.7 11:11:03 10° SSW 11:16:35 82° ESE 11:22:10 10° NNE
ADEOS 4.0 11:14:45 10° N 11:19:31 37° WNW 11:24:15 10° SW
Atlas Centaur 2 3.0 11:17:04 19° WSW 11:21:28 44° S 11:26:31 10° ESE
Cosmos 1689 Rocket 2.0 11:21:21 10° SSE 11:24:12 78° ENE 11:25:59 21° N
USA 234 3.8 11:17:54 10° NE 11:24:22 61° SE 11:30:49 10° SSW
Cosmos 2112 Rocket 4.0 11:20:39 10° NNW 11:26:02 86° WSW 11:31:21 10° SSE
Cosmos 1743 Rocket 3.5 11:21:50 10° S 11:26:16 85° W 11:30:45 10° N
Aureole 2 Rocket 1.9 11:25:13 10° S 11:27:43 67° ESE 11:30:15 10° NNE
Cosmos 1408 Rocket 4.0 11:23:55 10° SSW 11:28:05 39° W 11:32:17 10° N
Cosmos 2263 Rocket 4.1 11:30:10 12° NNW 11:30:10 12° NNW 11:31:16 10° NNW
Meteor 2-6 Rocket 4.4 11:23:33 10° N 11:28:57 72° E 11:34:24 10° SSE
ATLAS 2AS CENTAUR R/B 3.6 11:25:45 20° W 11:30:20 34° NW 11:37:21 10° NNE
H-2A R/B 4.0 11:27:54 10° NNE 11:31:28 36° E 11:35:00 10° SSE
Cosmos 1898 Rocket 3.8 11:26:36 10° SW 11:31:41 46° WNW 11:36:49 10° N
COSMO-SKYMED 1 2.6 11:27:36 10° S 11:31:53 59° W 11:36:10 10° NNW
ATLAS 5 CENTAUR R/B 3.7 11:28:54 10° S 11:32:15 27° ESE 11:35:50 10° NE
Milstar 3 Cent rocket 4.3 11:26:49 15° WSW 11:33:10 49° S 11:48:01 10° ESE
Gbstr 26 Del rocket 3.4 11:33:44 19° NNW 11:36:10 48° NE 11:40:05 10° ESE
SAR-Lupe-4 3.9 11:33:57 10° S 11:37:20 43° W 11:39:54 16° NNW
BREEZE-M DEB (TANK) 3.8 11:36:44 20° NNW 11:37:40 24° N 11:40:58 10° NE
Lacrosse 4 Rocket 2.5 11:39:58 21° WNW 11:41:35 27° WSW 11:45:17 10° SSW
Envisat 3.4 11:37:34 10° NNE 11:42:38 67° ESE 11:47:40 10° S
CZ-4B R/B 3.5 11:40:21 10° N 11:44:31 39° WNW 11:48:34 10° SW
Cosmos 1805 Rocket 3.8 11:41:00 10° S 11:45:24 74° E 11:49:52 10° N
Genesis I 4.4 11:44:54 20° WNW 11:45:53 22° NW 11:48:57 10° N
CZ-4B R/B 3.4 11:45:04 10° SW 11:45:32 12° WSW 11:45:32 12° WSW
Cosmos 1862 3.4 11:43:09 10° SSW 11:47:06 54° W 11:51:05 10° N
Cosmos 1937 Rocket 3.7 11:43:27 10° SW 11:48:20 44° WNW 11:53:17 10° N
YAOGAN 6 2.8 11:44:51 10° NNE 11:48:20 71° E 11:51:48 10° S
MOS 1 Rocket 3.5 11:45:44 10° SSE 11:50:28 84° ENE 11:55:31 10° N
Nadezhda 3 Rocket 4.1 11:45:16 10° N 11:51:36 86° E 11:57:48 10° S
